TimeCST,TemperatureF,Dew PointF,Humidity,Sea Level PressureIn,VisibilityMPH,Wind Direction,Wind SpeedMPH,Gust SpeedMPH,PrecipitationIn,Events,Conditions,WindDirDegrees,DateUTC
12:15 AM,30.2,26.6,86,30.34,10.0,Calm,Calm,-,N/A,,Clear,0,2013-02-16 06:15:00
12:35 AM,28.4,24.8,86,30.35,10.0,Calm,Calm,-,N/A,,Clear,0,2013-02-16 06:35:00
12:55 AM,30.2,26.6,86,30.35,10.0,Calm,Calm,-,N/A,,Clear,0,2013-02-16 06:55:00
1:15 AM,30.2,26.6,86,30.35,10.0,South,3.5,-,N/A,,Clear,170,2013-02-16 07:15:00
1:35 AM,30.2,24.8,80,30.34,10.0,Calm,Calm,-,N/A,,Scattered Clouds,0,2013-02-16 07:35:00
1:55 AM,30.2,26.6,86,30.34,10.0,Calm,Calm,-,N/A,,Overcast,0,2013-02-16 07:55:00
2:15 AM,30.2,26.6,86,30.34,10.0,Calm,Calm,-,N/A,,Mostly Cloudy,0,2013-02-16 08:15:00
2:35 AM,32.0,26.6,80,30.34,10.0,South,3.5,-,N/A,,Overcast,190,2013-02-16 08:35:00
2:55 AM,32.0,26.6,80,30.33,10.0,South,4.6,-,N/A,,Overcast,190,2013-02-16 08:55:00
3:15 AM,32.0,26.6,80,30.33,10.0,South,3.5,-,N/A,,Overcast,190,2013-02-16 09:15:00
3:35 AM,32.0,26.6,80,30.32,10.0,SSW,4.6,-,N/A,,Mostly Cloudy,200,2013-02-16 09:35:00
3:55 AM,32.0,24.8,75,30.33,10.0,SW,5.8,-,N/A,,Mostly Cloudy,230,2013-02-16 09:55:00
4:15 AM,32.0,24.8,75,30.33,10.0,WSW,4.6,-,N/A,,Overcast,240,2013-02-16 10:15:00
4:35 AM,33.8,26.6,75,30.33,10.0,West,8.1,-,N/A,,Mostly Cloudy,280,2013-02-16 10:35:00
4:55 AM,35.6,28.4,75,30.34,10.0,WNW,13.8,-,N/A,,Clear,300,2013-02-16 10:55:00
5:15 AM,35.6,28.4,75,30.34,10.0,NW,5.8,16.1,N/A,,Clear,320,2013-02-16 11:15:00
5:35 AM,33.8,26.6,75,30.34,10.0,Calm,Calm,-,N/A,,Clear,0,2013-02-16 11:35:00
5:55 AM,32.0,26.6,80,30.35,10.0,Calm,Calm,-,N/A,,Clear,0,2013-02-16 11:55:00
6:15 AM,33.8,26.6,75,30.35,10.0,NW,5.8,-,N/A,,Clear,320,2013-02-16 12:15:00
6:35 AM,33.8,26.6,75,30.35,10.0,Calm,Calm,-,N/A,,Clear,0,2013-02-16 12:35:00
6:55 AM,32.0,26.6,80,30.36,10.0,SW,4.6,-,N/A,,Clear,230,2013-02-16 12:55:00
7:15 AM,32.0,26.6,80,30.36,10.0,SW,4.6,-,N/A,,Clear,220,2013-02-16 13:15:00
7:35 AM,32.0,26.6,80,30.36,10.0,SW,3.5,-,N/A,,Clear,230,2013-02-16 13:35:00
7:55 AM,32.0,26.6,80,30.37,10.0,Calm,Calm,-,N/A,,Clear,0,2013-02-16 13:55:00
8:15 AM,33.8,23.0,65,30.38,10.0,West,3.5,-,N/A,,Clear,270,2013-02-16 14:15:00
8:35 AM,33.8,24.8,70,30.39,10.0,West,5.8,17.3,N/A,,Clear,270,2013-02-16 14:35:00
8:55 AM,35.6,24.8,65,30.39,10.0,WNW,6.9,-,N/A,,Clear,300,2013-02-16 14:55:00
9:15 AM,35.6,23.0,60,30.39,10.0,NNW,10.4,-,N/A,,Clear,340,2013-02-16 15:15:00
9:35 AM,35.6,21.2,56,30.39,10.0,WNW,10.4,-,N/A,,Clear,300,2013-02-16 15:35:00
12:15 PM,41.0,19.4,42,30.37,10.0,North,6.9,-,N/A,,Clear,350,2013-02-16 18:15:00
12:35 PM,41.0,19.4,42,30.36,10.0,Calm,Calm,-,N/A,,Clear,0,2013-02-16 18:35:00
12:55 PM,41.0,19.4,42,30.34,10.0,WNW,9.2,-,N/A,,Clear,290,2013-02-16 18:55:00
1:15 PM,42.8,19.4,39,30.33,10.0,West,8.1,-,N/A,,Clear,270,2013-02-16 19:15:00
1:35 PM,42.8,17.6,36,30.32,10.0,WNW,6.9,-,N/A,,Clear,290,2013-02-16 19:35:00
1:55 PM,42.8,17.6,36,30.31,10.0,West,9.2,-,N/A,,Mostly Cloudy,270,2013-02-16 19:55:00
2:15 PM,42.8,15.8,34,30.30,10.0,Calm,Calm,-,N/A,,Overcast,0,2013-02-16 20:15:00
2:35 PM,42.8,14.0,31,30.29,10.0,Calm,Calm,-,N/A,,Overcast,0,2013-02-16 20:35:00
2:55 PM,42.8,14.0,31,30.28,10.0,WSW,4.6,-,N/A,,Overcast,250,2013-02-16 20:55:00
3:15 PM,42.8,10.4,27,30.28,10.0,Calm,Calm,-,N/A,,Overcast,0,2013-02-16 21:15:00
3:35 PM,42.8,12.2,29,30.27,10.0,Calm,Calm,-,N/A,,Overcast,0,2013-02-16 21:35:00
3:55 PM,42.8,14.0,31,30.27,10.0,West,5.8,-,N/A,,Overcast,280,2013-02-16 21:55:00
4:15 PM,42.8,12.2,29,30.26,10.0,Calm,Calm,-,N/A,,Overcast,0,2013-02-16 22:15:00
4:35 PM,42.8,12.2,29,30.25,10.0,SW,3.5,-,N/A,,Overcast,230,2013-02-16 22:35:00
4:55 PM,42.8,14.0,31,30.24,10.0,South,6.9,-,N/A,,Overcast,190,2013-02-16 22:55:00
5:15 PM,42.8,12.2,29,30.24,10.0,SW,4.6,-,N/A,,Overcast,220,2013-02-16 23:15:00
5:35 PM,42.8,12.2,29,30.23,10.0,SW,3.5,-,N/A,,Overcast,230,2013-02-16 23:35:00
5:55 PM,42.8,8.6,25,30.23,10.0,Calm,Calm,-,N/A,,Overcast,0,2013-02-16 23:55:00
6:15 PM,41.0,12.2,31,30.22,10.0,Calm,Calm,-,N/A,,Overcast,0,2013-02-17 00:15:00
6:35 PM,41.0,17.6,39,30.22,10.0,Calm,Calm,-,N/A,,Mostly Cloudy,0,2013-02-17 00:35:00
6:55 PM,37.4,19.4,48,30.21,10.0,Calm,Calm,-,N/A,,Clear,0,2013-02-17 00:55:00
7:15 PM,37.4,23.0,56,30.21,10.0,Calm,Calm,-,N/A,,Clear,0,2013-02-17 01:15:00
7:35 PM,35.6,26.6,70,30.21,10.0,Calm,Calm,-,N/A,,Clear,0,2013-02-17 01:35:00
7:55 PM,35.6,23.0,60,30.21,10.0,Calm,Calm,-,N/A,,Clear,0,2013-02-17 01:55:00
8:15 PM,35.6,24.8,65,30.21,10.0,Calm,Calm,-,N/A,,Clear,0,2013-02-17 02:15:00
8:35 PM,33.8,24.8,70,30.21,10.0,Calm,Calm,-,N/A,,Clear,0,2013-02-17 02:35:00
8:55 PM,33.8,26.6,75,30.20,10.0,Calm,Calm,-,N/A,,Clear,0,2013-02-17 02:55:00
9:15 PM,32.0,24.8,75,30.20,10.0,Calm,Calm,-,N/A,,Clear,0,2013-02-17 03:15:00
9:35 PM,32.0,23.0,69,30.20,10.0,Calm,Calm,-,N/A,,Clear,0,2013-02-17 03:35:00
9:55 PM,32.0,23.0,69,30.20,10.0,Calm,Calm,-,N/A,,Clear,0,2013-02-17 03:55:00
10:15 PM,32.0,26.6,80,30.20,10.0,Calm,Calm,-,N/A,,Clear,0,2013-02-17 04:15:00
10:35 PM,32.0,26.6,80,30.19,10.0,Calm,Calm,-,N/A,,Clear,0,2013-02-17 04:35:00
10:55 PM,32.0,24.8,75,30.18,10.0,Calm,Calm,-,N/A,,Clear,0,2013-02-17 04:55:00
11:15 PM,32.0,26.6,80,30.18,10.0,Calm,Calm,-,N/A,,Clear,0,2013-02-17 05:15:00
11:35 PM,32.0,26.6,80,30.18,10.0,Calm,Calm,-,N/A,,Clear,0,2013-02-17 05:35:00
11:55 PM,32.0,28.4,87,30.17,10.0,Calm,Calm,-,N/A,,Clear,0,2013-02-17 05:55:00